• In Germany
  • List of Countries
  • For 7 days
  • Water Temperature
  • Satellite Maps
  • Weather Map
  • Weather Widgets
  • user-avatar
    Login

    Hourly Weather Żagań

    Today, 25 November, Saturday

    Time Temperature Precipitation Wind Pressure Humidity
    00:00 +9°C° 0.2 mm 1 mps 749 mmHg 88%
    01:00 +9°C° 0 mm 1 mps 749 mmHg 91%
    02:00 +9°C° 0.7 mm 1 mps 749 mmHg 91%
    03:00 +9°C° 0.7 mm 1 mps 748 mmHg 92%
    04:00 +8°C° 0.7 mm 1 mps 748 mmHg 92%
    05:00 +7°C° 0.2 mm 2 mps 747 mmHg 91%
    06:00 +7°C° 0.2 mm 2 mps 747 mmHg 91%
    07:00 +7°C° 0.2 mm 2 mps 746 mmHg 90%
    08:00 +8°C° 0.3 mm 3 mps 746 mmHg 87%
    09:00 +8°C° 0.3 mm 3 mps 745 mmHg 85%
    10:00 +8°C° 0.3 mm 3 mps 744 mmHg 82%
    11:00 +8°C° 1.3 mm 3 mps 744 mmHg 83%
    12:00 +8°C° 1.3 mm 3 mps 744 mmHg 84%
    13:00 +8°C° 1.3 mm 3 mps 743 mmHg 85%
    14:00 +8°C° 0.5 mm 3 mps 743 mmHg 86%
    15:00 +6°C° 0.5 mm 4 mps 743 mmHg 87%
    16:00 +6°C° 0.5 mm 4 mps 743 mmHg 87%
    17:00 +6°C° 0.1 mm 4 mps 744 mmHg 87%
    18:00 +6°C° 0.1 mm 4 mps 744 mmHg 87%
    19:00 +6°C° 0.1 mm 5 mps 745 mmHg 86%
    20:00 +5°C° 0.1 mm 5 mps 746 mmHg 85%
    21:00 +5°C° 0.1 mm 5 mps 746 mmHg 83%
    22:00 +3°C° 0.1 mm 6 mps 747 mmHg 82%
    23:00 +3°C° 0.1 mm 5 mps 748 mmHg 83%

    Tomorrow, 26 November, Sunday

    Time Temperature Precipitation Wind Pressure Humidity
    00:00 +2°C° 0.1 mm 5 mps 749 mmHg 84%
    01:00 +3°C° 0.1 mm 4 mps 749 mmHg 85%
    02:00 +3°C° 0 mm 4 mps 750 mmHg 86%
    03:00 +1°C° 0 mm 4 mps 750 mmHg 87%
    04:00 +1°C° 0 mm 4 mps 751 mmHg 88%
    05:00 +1°C° 0 mm 4 mps 752 mmHg 88%
    06:00 0°C° 0 mm 4 mps 752 mmHg 89%
    07:00 0°C° 0 mm 4 mps 753 mmHg 89%
    08:00 0°C° 0 mm 4 mps 753 mmHg 85%
    09:00 +1°C° 0 mm 4 mps 753 mmHg 82%
    10:00 +1°C° 0 mm 5 mps 753 mmHg 79%
    11:00 +2°C° 0 mm 5 mps 753 mmHg 76%
    12:00 +2°C° 0 mm 5 mps 753 mmHg 73%
    13:00 +3°C° 0 mm 5 mps 754 mmHg 69%
    14:00 +3°C° 0 mm 4 mps 754 mmHg 72%
    15:00 +3°C° 0 mm 4 mps 754 mmHg 75%
    16:00 +2°C° 0 mm 3 mps 754 mmHg 78%
    17:00 +2°C° 0 mm 3 mps 754 mmHg 78%
    18:00 +1°C° 0 mm 4 mps 755 mmHg 78%
    19:00 +1°C° 0 mm 4 mps 755 mmHg 79%
    20:00 +1°C° 0 mm 4 mps 755 mmHg 79%
    21:00 +1°C° 0 mm 4 mps 755 mmHg 80%
    22:00 +1°C° 0 mm 4 mps 755 mmHg 80%
    23:00 0°C° 0 mm 4 mps 756 mmHg 82%

    Day after tomorrow, 27 November, Monday

    Time Temperature Precipitation Wind Pressure Humidity
    00:00 0°C° 0 mm 4 mps 756 mmHg 83%
    01:00 -1°C° 0 mm 4 mps 756 mmHg 84%
    02:00 -1°C° 0 mm 4 mps 756 mmHg 85%
    03:00 -1°C° 0 mm 4 mps 756 mmHg 86%
    04:00 -1°C° 0 mm 4 mps 756 mmHg 87%
    05:00 -1°C° 0 mm 4 mps 756 mmHg 87%
    06:00 -1°C° 0 mm 4 mps 756 mmHg 88%
    07:00 -1°C° 0 mm 4 mps 756 mmHg 88%
    08:00 -1°C° 0 mm 4 mps 756 mmHg 85%
    09:00 0°C° 0 mm 4 mps 757 mmHg 81%
    10:00 0°C° 0 mm 5 mps 757 mmHg 78%
    11:00 +1°C° 0 mm 5 mps 756 mmHg 74%
    12:00 +2°C° 0 mm 5 mps 756 mmHg 70%
    13:00 +3°C° 0 mm 5 mps 756 mmHg 66%
    14:00 +3°C° 0 mm 4 mps 755 mmHg 69%
    15:00 +1°C° 0 mm 4 mps 755 mmHg 71%
    16:00 +2°C° 0 mm 3 mps 754 mmHg 73%
    17:00 +1°C° 0 mm 4 mps 754 mmHg 73%
    18:00 +1°C° 0 mm 4 mps 754 mmHg 73%
    19:00 0°C° 0 mm 5 mps 753 mmHg 73%
    20:00 +1°C° 0 mm 5 mps 753 mmHg 74%
    21:00 +1°C° 0 mm 5 mps 753 mmHg 74%
    22:00 +1°C° 0 mm 5 mps 752 mmHg 75%
    23:00 +1°C° 0 mm 5 mps 752 mmHg 75%

    28 November, Tuesday

    Time Temperature Precipitation Wind Pressure Humidity
    00:00 +1°C° 0 mm 5 mps 751 mmHg 75%
    01:00 +1°C° 0 mm 4 mps 751 mmHg 75%
    02:00 +1°C° 0 mm 4 mps 750 mmHg 75%
    03:00 +1°C° 0 mm 4 mps 750 mmHg 74%
    04:00 +1°C° 0 mm 5 mps 749 mmHg 74%
    05:00 +1°C° 0 mm 5 mps 749 mmHg 73%
    06:00 +1°C° 0 mm 5 mps 748 mmHg 72%
    07:00 +1°C° 0 mm 5 mps 748 mmHg 71%
    08:00 +1°C° 0 mm 5 mps 747 mmHg 67%
    09:00 +2°C° 0 mm 5 mps 747 mmHg 62%
    10:00 +2°C° 0 mm 6 mps 747 mmHg 57%
    11:00 +3°C° 0.1 mm 6 mps 746 mmHg 55%
    12:00 +3°C° 0.1 mm 6 mps 745 mmHg 53%
    13:00 +4°C° 0.1 mm 6 mps 745 mmHg 51%
    14:00 +3°C° 0.1 mm 5 mps 744 mmHg 53%
    15:00 +3°C° 0.1 mm 5 mps 744 mmHg 55%
    16:00 +3°C° 0.1 mm 5 mps 744 mmHg 56%
    17:00 +3°C° 0 mm 5 mps 743 mmHg 58%
    18:00 +2°C° 0 mm 5 mps 743 mmHg 60%
    19:00 +2°C° 0 mm 5 mps 743 mmHg 62%
    20:00 +2°C° 0 mm 5 mps 743 mmHg 64%
    21:00 +3°C° 0 mm 5 mps 743 mmHg 66%
    22:00 +3°C° 0 mm 5 mps 743 mmHg 69%
    23:00 +2°C° 0 mm 5 mps 743 mmHg 71%

    29 November, Wednesday

    Time Temperature Precipitation Wind Pressure Humidity
    00:00 +3°C° 0 mm 4 mps 743 mmHg 74%
    01:00 +3°C° 0 mm 4 mps 743 mmHg 77%
    02:00 +1°C° 0 mm 4 mps 743 mmHg 79%
    03:00 +2°C° 0 mm 3 mps 743 mmHg 81%
    04:00 +2°C° 0 mm 3 mps 743 mmHg 82%
    05:00 +1°C° 0 mm 3 mps 743 mmHg 83%
    06:00 +1°C° 0 mm 3 mps 743 mmHg 84%
    07:00 +1°C° 0 mm 3 mps 743 mmHg 85%
    08:00 +1°C° 0 mm 3 mps 743 mmHg 82%
    09:00 +2°C° 0 mm 3 mps 743 mmHg 79%
    10:00 +3°C° 0 mm 4 mps 743 mmHg 76%
    11:00 +3°C° 0 mm 4 mps 743 mmHg 72%
    12:00 +4°C° 0 mm 4 mps 743 mmHg 69%
    13:00 +4°C° 0 mm 4 mps 743 mmHg 66%
    14:00 +3°C° 0 mm 3 mps 743 mmHg 68%
    15:00 +3°C° 0 mm 3 mps 743 mmHg 71%
    16:00 +2°C° 0 mm 3 mps 742 mmHg 73%
    17:00 +2°C° 0 mm 3 mps 742 mmHg 75%
    18:00 +1°C° 0 mm 3 mps 742 mmHg 76%
    19:00 +1°C° 0 mm 3 mps 743 mmHg 77%
    20:00 +1°C° 0 mm 3 mps 742 mmHg 79%
    21:00 0°C° 0 mm 3 mps 742 mmHg 80%
    22:00 0°C° 0 mm 3 mps 742 mmHg 81%
    23:00 0°C° 0 mm 3 mps 742 mmHg 82%

    30 November, Thursday

    Time Temperature Precipitation Wind Pressure Humidity
    00:00 0°C° 0 mm 3 mps 742 mmHg 82%
    01:00 0°C° 0 mm 3 mps 741 mmHg 83%
    02:00 0°C° 0 mm 3 mps 741 mmHg 82%
    03:00 0°C° 0 mm 3 mps 741 mmHg 81%
    04:00 0°C° 0 mm 3 mps 741 mmHg 81%
    05:00 0°C° 0 mm 3 mps 741 mmHg 82%
    06:00 0°C° 0 mm 3 mps 741 mmHg 83%
    07:00 0°C° 0 mm 3 mps 742 mmHg 85%
    08:00 +1°C° 0 mm 3 mps 742 mmHg 83%
    09:00 +1°C° 0 mm 3 mps 742 mmHg 82%
    10:00 +1°C° 0 mm 3 mps 742 mmHg 80%
    11:00 +2°C° 0 mm 3 mps 742 mmHg 76%
    12:00 +2°C° 0 mm 3 mps 742 mmHg 72%
    13:00 +3°C° 0 mm 3 mps 742 mmHg 68%
    14:00 +3°C° 0 mm 2 mps 742 mmHg 72%
    15:00 +2°C° 0 mm 2 mps 742 mmHg 76%
    16:00 +2°C° 0 mm 1 mps 742 mmHg 80%
    17:00 +2°C° 0 mm 1 mps 742 mmHg 82%
    18:00 +2°C° 0 mm 1 mps 742 mmHg 83%
    19:00 -1°C° 0 mm 2 mps 743 mmHg 85%
    20:00 -1°C° 0.1 mm 2 mps 743 mmHg 83%
    21:00 +1°C° 0.1 mm 2 mps 743 mmHg 82%
    22:00 +1°C° 0.1 mm 2 mps 743 mmHg 81%
    23:00 -1°C° 0 mm 2 mps 743 mmHg 83%
    Show more